Time,TemperatureF,DewpointF,PressureIn,WindDirection,WindDirectionDegrees,WindSpeedMPH,WindSpeedGustMPH,Humidity,HourlyPrecipIn,Conditions,Clouds,dailyrainin,SoftwareType,DateUTC
2013-02-26 00:02:00,47.3,21.0,30.12,North,3,5.0,-999.0,36,-99.99,,,0.00,weatherlink.com 1.10,2013-02-26 08:02:00,
2013-02-26 00:17:00,47.4,18.0,30.13,NNE,17,5.0,-999.0,31,-99.99,,,0.00,weatherlink.com 1.10,2013-02-26 08:17:00,
2013-02-26 00:32:00,47.3,18.0,30.13,NNE,17,6.0,-999.0,31,-99.99,,,0.00,weatherlink.com 1.10,2013-02-26 08:32:00,
2013-02-26 00:47:00,47.3,17.0,30.13,NNE,21,5.0,-999.0,30,-99.99,,,0.00,weatherlink.com 1.10,2013-02-26 08:47:00,
2013-02-26 01:02:00,47.4,17.0,30.12,NNE,16,7.0,-999.0,30,-99.99,,,0.00,weatherlink.com 1.10,2013-02-26 09:02:00,
2013-02-26 01:17:00,47.6,17.0,30.12,NNE,13,7.0,-999.0,30,-99.99,,,0.00,weatherlink.com 1.10,2013-02-26 09:17:00,
2013-02-26 01:32:00,47.4,19.0,30.12,NNE,13,7.0,-999.0,32,-99.99,,,0.00,weatherlink.com 1.10,2013-02-26 09:32:00,
2013-02-26 01:48:00,47.7,22.0,30.12,NNE,16,8.0,-999.0,36,-99.99,,,0.00,weatherlink.com 1.10,2013-02-26 09:48:00,
2013-02-26 02:03:00,47.4,22.0,30.11,NNE,13,7.0,-999.0,37,-99.99,,,0.00,weatherlink.com 1.10,2013-02-26 10:03:00,
2013-02-26 02:18:00,47.1,22.0,30.11,NNE,13,6.0,-999.0,37,-99.99,,,0.00,weatherlink.com 1.10,2013-02-26 10:18:00,
2013-02-26 02:33:00,47.4,19.0,30.11,North,4,8.0,-999.0,33,-99.99,,,0.00,weatherlink.com 1.10,2013-02-26 10:33:00,
2013-02-26 02:48:00,46.7,23.0,30.11,North,11,6.0,-999.0,39,-99.99,,,0.00,weatherlink.com 1.10,2013-02-26 10:48:00,
2013-02-26 03:03:00,46.0,24.0,30.10,North,10,6.0,-999.0,42,-99.99,,,0.00,weatherlink.com 1.10,2013-02-26 11:03:00,
2013-02-26 03:18:00,44.9,28.0,30.11,NNE,27,8.0,-999.0,51,-99.99,,,0.00,weatherlink.com 1.10,2013-02-26 11:18:00,
2013-02-26 03:33:00,43.6,32.0,30.10,NNE,13,7.0,-999.0,63,-99.99,,,0.00,weatherlink.com 1.10,2013-02-26 11:33:00,
2013-02-26 03:48:00,43.3,30.0,30.11,NNE,17,8.0,-999.0,60,-99.99,,,0.00,weatherlink.com 1.10,2013-02-26 11:48:00,
2013-02-26 04:03:00,43.6,30.0,30.09,NNE,18,6.0,-999.0,58,-99.99,,,0.00,weatherlink.com 1.10,2013-02-26 12:03:00,
2013-02-26 04:18:00,43.9,30.0,30.09,North,11,6.0,-999.0,58,-99.99,,,0.00,weatherlink.com 1.10,2013-02-26 12:18:00,
2013-02-26 04:33:00,44.9,29.0,30.09,North,4,11.0,-999.0,54,-99.99,,,0.00,weatherlink.com 1.10,2013-02-26 12:33:00,
2013-02-26 04:48:00,44.8,29.0,30.09,NE,34,7.0,-999.0,54,-99.99,,,0.00,weatherlink.com 1.10,2013-02-26 12:48:00,
2013-02-26 05:03:00,45.4,29.0,30.08,NNE,24,2.0,-999.0,53,-99.99,,,0.00,weatherlink.com 1.10,2013-02-26 13:03:00,
2013-02-26 05:18:00,45.5,30.0,30.07,NNE,21,6.0,-999.0,54,-99.99,,,0.00,weatherlink.com 1.10,2013-02-26 13:18:00,
2013-02-26 05:33:00,43.8,32.0,30.08,North,359,7.0,-999.0,63,-99.99,,,0.00,weatherlink.com 1.10,2013-02-26 13:33:00,
2013-02-26 05:48:00,43.2,31.0,30.09,North,7,12.0,-999.0,63,-99.99,,,0.00,weatherlink.com 1.10,2013-02-26 13:48:00,
2013-02-26 06:03:00,43.8,26.0,30.09,WNW,299,5.0,-999.0,50,-99.99,,,0.00,weatherlink.com 1.10,2013-02-26 14:03:00,
2013-02-26 06:18:00,43.6,24.0,30.09,North,352,5.0,-999.0,47,-99.99,,,0.00,weatherlink.com 1.10,2013-02-26 14:18:00,
2013-02-26 06:33:00,43.5,21.0,30.10,NE,40,6.0,-999.0,41,-99.99,,,0.00,weatherlink.com 1.10,2013-02-26 14:33:00,
2013-02-26 06:48:00,43.5,20.0,30.10,NNE,31,11.0,-999.0,40,-99.99,,,0.00,weatherlink.com 1.10,2013-02-26 14:48:00,
2013-02-26 07:03:00,43.2,18.0,30.10,SE,127,5.0,-999.0,36,-99.99,,,0.00,weatherlink.com 1.10,2013-02-26 15:03:00,
2013-02-26 07:18:00,43.5,15.0,30.11,NNE,27,8.0,-999.0,31,-99.99,,,0.00,weatherlink.com 1.10,2013-02-26 15:18:00,
2013-02-26 07:33:00,43.6,16.0,30.11,North,8,9.0,-999.0,33,-99.99,,,0.00,weatherlink.com 1.10,2013-02-26 15:33:00,
2013-02-26 07:48:00,44.1,15.0,30.11,ENE,71,7.0,-999.0,31,-99.99,,,0.00,weatherlink.com 1.10,2013-02-26 15:48:00,
2013-02-26 08:03:00,44.8,14.0,30.12,ENE,71,6.0,-999.0,29,-99.99,,,0.00,weatherlink.com 1.10,2013-02-26 16:03:00,
2013-02-26 08:18:00,44.8,16.0,30.12,North,11,6.0,-999.0,31,-99.99,,,0.00,weatherlink.com 1.10,2013-02-26 16:18:00,
2013-02-26 08:33:00,45.4,16.0,30.12,NE,56,5.0,-999.0,31,-99.99,,,0.00,weatherlink.com 1.10,2013-02-26 16:33:00,
2013-02-26 08:48:00,46.4,15.0,30.13,NNE,13,10.0,-999.0,28,-99.99,,,0.00,weatherlink.com 1.10,2013-02-26 16:48:00,
2013-02-26 09:03:00,46.8,13.0,30.12,NW,305,3.0,-999.0,26,-99.99,,,0.00,weatherlink.com 1.10,2013-02-26 17:03:00,
2013-02-26 09:18:00,47.0,13.0,30.12,NE,40,4.0,-999.0,25,-99.99,,,0.00,weatherlink.com 1.10,2013-02-26 17:18:00,
2013-02-26 09:33:00,47.3,14.0,30.12,NE,35,7.0,-999.0,26,-99.99,,,0.00,weatherlink.com 1.10,2013-02-26 17:33:00,
2013-02-26 09:48:00,47.3,16.0,30.12,NE,55,8.0,-999.0,28,-99.99,,,0.00,weatherlink.com 1.10,2013-02-26 17:48:00,
2013-02-26 10:03:00,48.0,15.0,30.13,NE,52,2.0,-999.0,27,-99.99,,,0.00,weatherlink.com 1.10,2013-02-26 18:03:00,
2013-02-26 10:18:00,48.5,15.0,30.13,ENE,58,10.0,-999.0,26,-99.99,,,0.00,weatherlink.com 1.10,2013-02-26 18:18:00,
2013-02-26 10:33:00,49.1,16.0,30.13,North,7,6.0,-999.0,27,-99.99,,,0.00,weatherlink.com 1.10,2013-02-26 18:33:00,
2013-02-26 10:48:00,49.5,15.0,30.14,NNE,27,6.0,-999.0,25,-99.99,,,0.00,weatherlink.com 1.10,2013-02-26 18:48:00,
2013-02-26 11:03:00,50.2,18.0,30.13,NNE,27,7.0,-999.0,28,-99.99,,,0.00,weatherlink.com 1.10,2013-02-26 19:03:00,
2013-02-26 11:18:00,50.5,12.0,30.14,NE,48,1.0,-999.0,21,-99.99,,,0.00,weatherlink.com 1.10,2013-02-26 19:18:00,
2013-02-26 11:33:00,51.3,15.0,30.13,NE,42,4.0,-999.0,24,-99.99,,,0.00,weatherlink.com 1.10,2013-02-26 19:33:00,
2013-02-26 11:49:00,51.9,14.0,30.13,NE,41,3.0,-999.0,22,-99.99,,,0.00,weatherlink.com 1.10,2013-02-26 19:49:00,
2013-02-26 12:04:00,52.0,14.0,30.13,NE,34,7.0,-999.0,22,-99.99,,,0.00,weatherlink.com 1.10,2013-02-26 20:04:00,
2013-02-26 12:19:00,52.9,17.0,30.12,North,0,2.0,-999.0,24,-99.99,,,0.00,weatherlink.com 1.10,2013-02-26 20:19:00,
2013-02-26 12:34:00,53.8,18.0,30.12,North,359,6.0,-999.0,24,-99.99,,,0.00,weatherlink.com 1.10,2013-02-26 20:34:00,
2013-02-26 12:49:00,53.8,18.0,30.12,NNE,13,3.0,-999.0,24,-99.99,,,0.00,weatherlink.com 1.10,2013-02-26 20:49:00,
2013-02-26 13:04:00,53.5,18.0,30.11,NNE,18,3.0,-999.0,25,-99.99,,,0.00,weatherlink.com 1.10,2013-02-26 21:04:00,
2013-02-26 13:19:00,53.1,19.0,30.10,NNE,32,5.0,-999.0,26,-99.99,,,0.00,weatherlink.com 1.10,2013-02-26 21:19:00,
2013-02-26 13:34:00,53.3,20.0,30.10,NE,38,1.0,-999.0,27,-99.99,,,0.00,weatherlink.com 1.10,2013-02-26 21:34:00,
2013-02-26 13:49:00,53.2,18.0,30.10,NNE,21,6.0,-999.0,25,-99.99,,,0.00,weatherlink.com 1.10,2013-02-26 21:49:00,
2013-02-26 14:04:00,53.2,16.0,30.10,ENE,65,2.0,-999.0,23,-99.99,,,0.00,weatherlink.com 1.10,2013-02-26 22:04:00,
2013-02-26 14:19:00,53.5,19.0,30.10,NE,52,6.0,-999.0,26,-99.99,,,0.00,weatherlink.com 1.10,2013-02-26 22:19:00,
2013-02-26 14:34:00,53.9,20.0,30.10,North,11,6.0,-999.0,26,-99.99,,,0.00,weatherlink.com 1.10,2013-02-26 22:34:00,
2013-02-26 14:49:00,53.9,18.0,30.10,North,0,4.0,-999.0,24,-99.99,,,0.00,weatherlink.com 1.10,2013-02-26 22:49:00,
2013-02-26 15:04:00,53.8,20.0,30.09,North,7,3.0,-999.0,27,-99.99,,,0.00,weatherlink.com 1.10,2013-02-26 23:04:00,
2013-02-26 15:19:00,53.9,20.0,30.09,NNE,27,6.0,-999.0,26,-99.99,,,0.00,weatherlink.com 1.10,2013-02-26 23:19:00,
2013-02-26 15:34:00,54.1,19.0,30.09,NNE,20,2.0,-999.0,25,-99.99,,,0.00,weatherlink.com 1.10,2013-02-26 23:34:00,
2013-02-26 15:49:00,53.9,19.0,30.09,NE,41,6.0,-999.0,25,-99.99,,,0.00,weatherlink.com 1.10,2013-02-26 23:49:00,
2013-02-26 16:04:00,53.9,20.0,30.08,North,359,2.0,-999.0,26,-99.99,,,0.00,weatherlink.com 1.10,2013-02-27 00:04:00,
2013-02-26 16:19:00,53.8,20.0,30.09,NE,41,7.0,-999.0,27,-99.99,,,0.00,weatherlink.com 1.10,2013-02-27 00:19:00,
2013-02-26 16:34:00,53.5,21.0,30.09,NE,49,8.0,-999.0,28,-99.99,,,0.00,weatherlink.com 1.10,2013-02-27 00:34:00,
2013-02-26 16:49:00,53.6,20.0,30.09,NNE,17,7.0,-999.0,27,-99.99,,,0.00,weatherlink.com 1.10,2013-02-27 00:49:00,
2013-02-26 17:04:00,53.3,20.0,30.09,NNE,17,7.0,-999.0,27,-99.99,,,0.00,weatherlink.com 1.10,2013-02-27 01:04:00,
2013-02-26 17:19:00,53.1,20.0,30.10,NNE,17,8.0,-999.0,27,-99.99,,,0.00,weatherlink.com 1.10,2013-02-27 01:19:00,
2013-02-26 17:34:00,52.9,20.0,30.10,NNE,13,6.0,-999.0,27,-99.99,,,0.00,weatherlink.com 1.10,2013-02-27 01:34:00,
2013-02-26 17:49:00,52.6,19.0,30.10,NNE,13,7.0,-999.0,27,-99.99,,,0.00,weatherlink.com 1.10,2013-02-27 01:49:00,
2013-02-26 18:04:00,52.3,20.0,30.11,NNE,13,4.0,-999.0,28,-99.99,,,0.00,weatherlink.com 1.10,2013-02-27 02:04:00,
2013-02-26 18:19:00,51.9,20.0,30.11,NNE,18,6.0,-999.0,29,-99.99,,,0.00,weatherlink.com 1.10,2013-02-27 02:19:00,
2013-02-26 18:34:00,51.9,20.0,30.12,NNE,27,5.0,-999.0,28,-99.99,,,0.00,weatherlink.com 1.10,2013-02-27 02:34:00,
2013-02-26 18:49:00,52.0,20.0,30.12,North,4,2.0,-999.0,28,-99.99,,,0.00,weatherlink.com 1.10,2013-02-27 02:49:00,
2013-02-26 19:04:00,51.7,19.0,30.12,NNE,21,6.0,-999.0,28,-99.99,,,0.00,weatherlink.com 1.10,2013-02-27 03:04:00,
2013-02-26 19:19:00,51.4,20.0,30.12,North,8,5.0,-999.0,29,-99.99,,,0.00,weatherlink.com 1.10,2013-02-27 03:19:00,
2013-02-26 19:34:00,51.3,20.0,30.12,NNE,17,5.0,-999.0,29,-99.99,,,0.00,weatherlink.com 1.10,2013-02-27 03:34:00,
2013-02-26 19:49:00,50.7,21.0,30.12,North,8,5.0,-999.0,31,-99.99,,,0.00,weatherlink.com 1.10,2013-02-27 03:49:00,
2013-02-26 20:04:00,51.3,20.0,30.13,North,359,6.0,-999.0,29,-99.99,,,0.00,weatherlink.com 1.10,2013-02-27 04:04:00,
2013-02-26 20:19:00,51.9,20.0,30.13,NE,51,4.0,-999.0,28,-99.99,,,0.00,weatherlink.com 1.10,2013-02-27 04:19:00,
2013-02-26 20:34:00,52.0,20.0,30.13,NE,35,4.0,-999.0,28,-99.99,,,0.00,weatherlink.com 1.10,2013-02-27 04:34:00,
2013-02-26 20:49:00,52.3,21.0,30.14,NNE,20,6.0,-999.0,29,-99.99,,,0.00,weatherlink.com 1.10,2013-02-27 04:49:00,
2013-02-26 21:04:00,52.6,20.0,30.14,NNE,27,3.0,-999.0,28,-99.99,,,0.00,weatherlink.com 1.10,2013-02-27 05:04:00,
2013-02-26 21:19:00,52.6,20.0,30.14,NNE,30,4.0,-999.0,28,-99.99,,,0.00,weatherlink.com 1.10,2013-02-27 05:19:00,
2013-02-26 21:34:00,52.8,21.0,30.14,NNE,17,6.0,-999.0,29,-99.99,,,0.00,weatherlink.com 1.10,2013-02-27 05:34:00,
2013-02-26 21:49:00,52.6,20.0,30.14,NNE,13,3.0,-999.0,28,-99.99,,,0.00,weatherlink.com 1.10,2013-02-27 05:49:00,
2013-02-26 22:04:00,53.1,20.0,30.15,NNE,27,5.0,-999.0,27,-99.99,,,0.00,weatherlink.com 1.10,2013-02-27 06:04:00,
2013-02-26 22:19:00,53.3,18.0,30.14,North,8,7.0,-999.0,25,-99.99,,,0.00,weatherlink.com 1.10,2013-02-27 06:19:00,
2013-02-26 22:34:00,53.2,19.0,30.14,North,4,10.0,-999.0,26,-99.99,,,0.00,weatherlink.com 1.10,2013-02-27 06:34:00,
2013-02-26 22:49:00,53.9,18.0,30.14,North,350,5.0,-999.0,24,-99.99,,,0.00,weatherlink.com 1.10,2013-02-27 06:49:00,
2013-02-26 23:04:00,53.9,18.0,30.14,NNE,18,5.0,-999.0,24,-99.99,,,0.00,weatherlink.com 1.10,2013-02-27 07:04:00,
2013-02-26 23:19:00,54.2,16.0,30.14,North,352,7.0,-999.0,22,-99.99,,,0.00,weatherlink.com 1.10,2013-02-27 07:19:00,
2013-02-26 23:34:00,54.2,16.0,30.14,ENE,62,8.0,-999.0,22,-99.99,,,0.00,weatherlink.com 1.10,2013-02-27 07:34:00,
2013-02-26 23:49:00,54.2,16.0,30.14,NNE,14,3.0,-999.0,22,-99.99,,,0.00,weatherlink.com 1.10,2013-02-27 07:49:00,